Time,TemperatureF,DewpointF,PressureIn,WindDirection,WindDirectionDegrees,WindSpeedMPH,WindSpeedGustMPH,Humidity,HourlyPrecipIn,Conditions,Clouds,dailyrainin,SoftwareType,DateUTC
2013-02-02 00:01:00,53.0,36.0,30.19,WNW,300,1.0,2.0,52,0.00,,,-99.99,,2013-02-02 08:01:00,
2013-02-02 00:11:00,53.0,36.0,30.19,WNW,300,1.0,2.0,52,0.00,,,-99.99,,2013-02-02 08:11:00,
2013-02-02 00:21:00,52.0,36.0,30.19,WNW,293,0.0,2.0,54,0.00,,,-99.99,,2013-02-02 08:21:00,
2013-02-02 00:31:00,51.0,36.0,30.19,WNW,285,0.0,1.0,56,0.00,,,-99.99,,2013-02-02 08:31:00,
2013-02-02 00:41:00,51.0,36.0,30.19,WNW,285,0.0,1.0,56,0.00,,,-99.99,,2013-02-02 08:41:00,
2013-02-02 00:52:00,51.0,35.0,30.19,West,262,0.0,1.0,55,0.00,,,-99.99,,2013-02-02 08:52:00,
2013-02-02 01:01:00,52.0,35.0,30.19,NW,312,0.0,2.0,53,0.00,,,-99.99,,2013-02-02 09:01:00,
2013-02-02 01:11:00,52.0,35.0,30.19,NW,312,0.0,2.0,53,0.00,,,-99.99,,2013-02-02 09:11:00,
2013-02-02 01:22:00,52.0,36.0,30.19,WNW,287,0.0,2.0,54,0.00,,,-99.99,,2013-02-02 09:22:00,
2013-02-02 01:31:00,51.0,35.0,30.19,WNW,288,0.0,2.0,55,0.00,,,-99.99,,2013-02-02 09:31:00,
2013-02-02 01:41:00,51.0,35.0,30.19,WNW,288,0.0,2.0,55,0.00,,,-99.99,,2013-02-02 09:41:00,
2013-02-02 01:52:00,51.0,35.0,30.18,NW,319,0.0,1.0,54,0.00,,,-99.99,,2013-02-02 09:52:00,
2013-02-02 02:01:00,51.0,35.0,30.18,WNW,284,0.0,0.0,55,0.00,,,-99.99,,2013-02-02 10:01:00,
2013-02-02 02:11:00,51.0,35.0,30.17,NW,312,0.0,1.0,54,0.00,,,-99.99,,2013-02-02 10:11:00,
2013-02-02 02:21:00,51.0,35.0,30.17,NW,312,0.0,1.0,54,0.00,,,-99.99,,2013-02-02 10:21:00,
2013-02-02 02:31:00,51.0,35.0,30.17,WNW,286,0.0,1.0,55,0.00,,,-99.99,,2013-02-02 10:31:00,
2013-02-02 02:41:00,51.0,35.0,30.17,WNW,286,0.0,1.0,55,0.00,,,-99.99,,2013-02-02 10:41:00,
2013-02-02 02:52:00,52.0,36.0,30.17,WNW,294,0.0,1.0,54,0.00,,,-99.99,,2013-02-02 10:52:00,
2013-02-02 03:01:00,52.0,35.0,30.18,WNW,290,0.0,2.0,53,0.00,,,-99.99,,2013-02-02 11:01:00,
2013-02-02 03:11:00,52.0,36.0,30.18,WNW,293,0.0,1.0,55,0.00,,,-99.99,,2013-02-02 11:11:00,
2013-02-02 03:21:00,52.0,36.0,30.18,WNW,293,0.0,1.0,55,0.00,,,-99.99,,2013-02-02 11:21:00,
2013-02-02 03:31:00,52.0,36.0,30.17,NNW,343,0.0,1.0,54,0.00,,,-99.99,,2013-02-02 11:31:00,
2013-02-02 03:41:00,52.0,36.0,30.17,NNW,343,0.0,1.0,54,0.00,,,-99.99,,2013-02-02 11:41:00,
2013-02-02 03:52:00,52.0,35.0,30.17,WNW,284,0.0,1.0,53,0.00,,,-99.99,,2013-02-02 11:52:00,
2013-02-02 04:01:00,53.0,36.0,30.17,West,278,0.0,3.0,52,0.00,,,-99.99,,2013-02-02 12:01:00,
2013-02-02 04:11:00,53.0,36.0,30.17,West,278,0.0,3.0,52,0.00,,,-99.99,,2013-02-02 12:11:00,
2013-02-02 04:22:00,52.0,36.0,30.17,WNW,295,0.0,2.0,55,0.00,,,-99.99,,2013-02-02 12:22:00,
2013-02-02 04:32:00,52.0,36.0,30.17,WNW,299,0.0,1.0,55,0.00,,,-99.99,,2013-02-02 12:32:00,
2013-02-02 04:42:00,52.0,36.0,30.17,WNW,299,0.0,1.0,55,0.00,,,-99.99,,2013-02-02 12:42:00,
2013-02-02 04:52:00,52.0,36.0,30.17,WSW,256,0.0,1.0,54,0.00,,,-99.99,,2013-02-02 12:52:00,
2013-02-02 05:01:00,52.0,36.0,30.17,WNW,295,0.0,0.0,55,0.00,,,-99.99,,2013-02-02 13:01:00,
2013-02-02 05:11:00,52.0,36.0,30.17,WNW,295,0.0,0.0,55,0.00,,,-99.99,,2013-02-02 13:11:00,
2013-02-02 05:21:00,51.0,35.0,30.17,West,276,0.0,0.0,55,0.00,,,-99.99,,2013-02-02 13:21:00,
2013-02-02 05:32:00,51.0,36.0,30.17,WNW,286,0.0,0.0,56,0.00,,,-99.99,,2013-02-02 13:32:00,
2013-02-02 05:42:00,51.0,36.0,30.17,WNW,286,0.0,0.0,56,0.00,,,-99.99,,2013-02-02 13:42:00,
2013-02-02 05:52:00,51.0,36.0,30.18,West,281,0.0,0.0,56,0.00,,,-99.99,,2013-02-02 13:52:00,
2013-02-02 06:01:00,52.0,37.0,30.18,WNW,293,0.0,0.0,56,0.00,,,-99.99,,2013-02-02 14:01:00,
2013-02-02 06:11:00,52.0,37.0,30.18,WNW,293,0.0,0.0,56,0.00,,,-99.99,,2013-02-02 14:11:00,
2013-02-02 06:21:00,51.0,36.0,30.18,WNW,283,0.0,0.0,56,0.00,,,-99.99,,2013-02-02 14:21:00,
2013-02-02 06:31:00,51.0,36.0,30.18,NW,306,0.0,1.0,56,0.00,,,-99.99,,2013-02-02 14:31:00,
2013-02-02 06:41:00,51.0,36.0,30.18,NW,306,0.0,1.0,56,0.00,,,-99.99,,2013-02-02 14:41:00,
2013-02-02 06:52:00,52.0,37.0,30.19,WNW,292,0.0,0.0,57,0.00,,,-99.99,,2013-02-02 14:52:00,
2013-02-02 07:02:00,51.0,37.0,30.19,WNW,287,0.0,0.0,58,0.00,,,-99.99,,2013-02-02 15:02:00,
2013-02-02 07:11:00,51.0,37.0,30.19,WNW,287,0.0,0.0,58,0.00,,,-99.99,,2013-02-02 15:11:00,
2013-02-02 07:21:00,51.0,36.0,30.20,West,280,0.0,1.0,57,0.00,,,-99.99,,2013-02-02 15:21:00,
2013-02-02 07:32:00,51.0,37.0,30.20,WNW,294,0.0,2.0,58,0.00,,,-99.99,,2013-02-02 15:32:00,
2013-02-02 07:41:00,51.0,37.0,30.20,WNW,294,0.0,2.0,58,0.00,,,-99.99,,2013-02-02 15:41:00,
2013-02-02 07:52:00,52.0,37.0,30.21,West,278,0.0,1.0,56,0.00,,,-99.99,,2013-02-02 15:52:00,
2013-02-02 08:01:00,53.0,37.0,30.21,WNW,300,0.0,0.0,55,0.00,,,-99.99,,2013-02-02 16:01:00,
2013-02-02 08:11:00,53.0,37.0,30.21,WNW,300,0.0,0.0,55,0.00,,,-99.99,,2013-02-02 16:11:00,
2013-02-02 08:21:00,54.0,37.0,30.21,NW,305,0.0,2.0,52,0.00,,,-99.99,,2013-02-02 16:21:00,
2013-02-02 08:31:00,55.0,38.0,30.21,West,274,0.0,1.0,52,0.00,,,-99.99,,2013-02-02 16:31:00,
2013-02-02 08:42:00,55.0,38.0,30.21,West,274,0.0,1.0,52,0.00,,,-99.99,,2013-02-02 16:42:00,
2013-02-02 08:52:00,57.0,39.0,30.22,WNW,285,0.0,1.0,51,0.00,,,-99.99,,2013-02-02 16:52:00,
2013-02-02 09:01:00,58.0,41.0,30.22,West,274,0.0,1.0,53,0.00,,,-99.99,,2013-02-02 17:01:00,
2013-02-02 09:11:00,58.0,41.0,30.22,West,274,0.0,1.0,53,0.00,,,-99.99,,2013-02-02 17:11:00,
2013-02-02 09:21:00,60.0,40.0,30.22,West,260,0.0,1.0,48,0.00,,,-99.99,,2013-02-02 17:21:00,
2013-02-02 09:31:00,63.0,38.0,30.22,West,270,0.0,0.0,40,0.00,,,-99.99,,2013-02-02 17:31:00,
2013-02-02 09:41:00,63.0,38.0,30.22,West,270,0.0,0.0,40,0.00,,,-99.99,,2013-02-02 17:41:00,
2013-02-02 09:52:00,66.0,36.0,30.22,NW,309,0.0,0.0,33,0.00,,,-99.99,,2013-02-02 17:52:00,
2013-02-02 10:01:00,67.0,35.0,30.22,West,264,0.0,0.0,31,0.00,,,-99.99,,2013-02-02 18:01:00,
2013-02-02 10:11:00,67.0,35.0,30.22,West,264,0.0,0.0,31,0.00,,,-99.99,,2013-02-02 18:11:00,
2013-02-02 10:21:00,68.0,35.0,30.22,West,277,0.0,0.0,30,0.00,,,-99.99,,2013-02-02 18:21:00,
2013-02-02 10:31:00,69.0,34.0,30.21,West,274,0.0,0.0,27,0.00,,,-99.99,,2013-02-02 18:31:00,
2013-02-02 10:41:00,69.0,34.0,30.21,West,274,0.0,0.0,27,0.00,,,-99.99,,2013-02-02 18:41:00,
2013-02-02 10:52:00,70.0,34.0,30.21,West,274,0.0,0.0,27,0.00,,,-99.99,,2013-02-02 18:52:00,
2013-02-02 11:01:00,71.0,34.0,30.20,WSW,249,0.0,0.0,26,0.00,,,-99.99,,2013-02-02 19:01:00,
2013-02-02 11:11:00,72.0,36.0,30.20,ESE,110,0.0,0.0,27,0.00,,,-99.99,,2013-02-02 19:11:00,
2013-02-02 11:21:00,72.0,36.0,30.20,ESE,110,0.0,0.0,27,0.00,,,-99.99,,2013-02-02 19:21:00,
2013-02-02 11:31:00,72.0,34.0,30.19,SE,133,0.0,0.0,25,0.00,,,-99.99,,2013-02-02 19:31:00,
2013-02-02 11:41:00,72.0,34.0,30.19,SE,133,0.0,0.0,25,0.00,,,-99.99,,2013-02-02 19:41:00,
2013-02-02 11:52:00,73.0,35.0,30.19,ESE,122,0.0,0.0,25,0.00,,,-99.99,,2013-02-02 19:52:00,
2013-02-02 12:01:00,74.0,35.0,30.18,SE,134,0.0,0.0,24,0.00,,,-99.99,,2013-02-02 20:01:00,
2013-02-02 12:11:00,74.0,35.0,30.18,SE,134,0.0,0.0,24,0.00,,,-99.99,,2013-02-02 20:11:00,
2013-02-02 12:21:00,74.0,35.0,30.16,East,84,0.0,1.0,24,0.00,,,-99.99,,2013-02-02 20:21:00,
2013-02-02 12:31:00,75.0,35.0,30.16,WNW,283,0.0,2.0,23,0.00,,,-99.99,,2013-02-02 20:31:00,
2013-02-02 12:41:00,75.0,35.0,30.16,WNW,283,0.0,2.0,23,0.00,,,-99.99,,2013-02-02 20:41:00,
2013-02-02 12:52:00,75.0,34.0,30.15,ESE,122,0.0,0.0,22,0.00,,,-99.99,,2013-02-02 20:52:00,
2013-02-02 13:01:00,75.0,32.0,30.14,ESE,108,0.0,0.0,21,0.00,,,-99.99,,2013-02-02 21:01:00,
2013-02-02 13:11:00,75.0,32.0,30.14,ESE,108,0.0,0.0,21,0.00,,,-99.99,,2013-02-02 21:11:00,
2013-02-02 13:21:00,76.0,33.0,30.14,WNW,290,0.0,1.0,21,0.00,,,-99.99,,2013-02-02 21:21:00,
2013-02-02 13:32:00,76.0,33.0,30.13,East,96,0.0,2.0,21,0.00,,,-99.99,,2013-02-02 21:32:00,
2013-02-02 13:42:00,76.0,33.0,30.13,East,96,0.0,2.0,21,0.00,,,-99.99,,2013-02-02 21:42:00,
2013-02-02 13:52:00,77.0,34.0,30.12,ESE,108,0.0,2.0,21,0.00,,,-99.99,,2013-02-02 21:52:00,
2013-02-02 14:01:00,76.0,32.0,30.11,ESE,108,0.0,2.0,20,0.00,,,-99.99,,2013-02-02 22:01:00,
2013-02-02 14:11:00,76.0,32.0,30.11,ESE,108,0.0,2.0,20,0.00,,,-99.99,,2013-02-02 22:11:00,
2013-02-02 14:21:00,76.0,31.0,30.11,SE,143,0.0,3.0,19,0.00,,,-99.99,,2013-02-02 22:21:00,
2013-02-02 14:32:00,77.0,33.0,30.11,SE,129,1.0,3.0,20,0.00,,,-99.99,,2013-02-02 22:32:00,
2013-02-02 14:41:00,77.0,33.0,30.11,SE,129,1.0,3.0,20,0.00,,,-99.99,,2013-02-02 22:41:00,
2013-02-02 14:52:00,76.0,32.0,30.11,SE,141,2.0,6.0,20,0.00,,,-99.99,,2013-02-02 22:52:00,
2013-02-02 15:01:00,76.0,32.0,30.10,ENE,76,1.0,3.0,20,0.00,,,-99.99,,2013-02-02 23:01:00,
2013-02-02 15:11:00,76.0,32.0,30.10,ENE,76,1.0,3.0,20,0.00,,,-99.99,,2013-02-02 23:11:00,
2013-02-02 15:21:00,75.0,31.0,30.10,SE,141,1.0,3.0,20,0.00,,,-99.99,,2013-02-02 23:21:00,
2013-02-02 15:32:00,75.0,34.0,30.10,East,90,1.0,4.0,22,0.00,,,-99.99,,2013-02-02 23:32:00,
2013-02-02 15:41:00,75.0,34.0,30.10,East,90,1.0,4.0,22,0.00,,,-99.99,,2013-02-02 23:41:00,
2013-02-02 15:52:00,74.0,34.0,30.10,ESE,123,0.0,3.0,23,0.00,,,-99.99,,2013-02-02 23:52:00,
2013-02-02 16:01:00,74.0,33.0,30.11,SE,142,1.0,3.0,22,0.00,,,-99.99,,2013-02-03 00:01:00,
2013-02-02 16:11:00,74.0,33.0,30.11,SE,142,1.0,3.0,22,0.00,,,-99.99,,2013-02-03 00:11:00,
2013-02-02 16:21:00,74.0,33.0,30.11,SE,134,0.0,2.0,22,0.00,,,-99.99,,2013-02-03 00:21:00,
2013-02-02 16:31:00,73.0,34.0,30.11,SSE,150,0.0,1.0,24,0.00,,,-99.99,,2013-02-03 00:31:00,
2013-02-02 16:41:00,73.0,34.0,30.11,SSE,150,0.0,1.0,24,0.00,,,-99.99,,2013-02-03 00:41:00,
2013-02-02 16:52:00,72.0,33.0,30.10,SE,125,0.0,0.0,24,0.00,,,-99.99,,2013-02-03 00:52:00,
2013-02-02 17:01:00,71.0,33.0,30.10,SE,125,0.0,0.0,25,0.00,,,-99.99,,2013-02-03 01:01:00,
2013-02-02 17:11:00,70.0,35.0,30.11,SE,125,0.0,0.0,28,0.00,,,-99.99,,2013-02-03 01:11:00,
2013-02-02 17:21:00,70.0,35.0,30.11,SE,125,0.0,0.0,28,0.00,,,-99.99,,2013-02-03 01:21:00,
2013-02-02 17:32:00,69.0,37.0,30.11,SE,126,0.0,0.0,31,0.00,,,-99.99,,2013-02-03 01:32:00,
2013-02-02 17:41:00,69.0,37.0,30.11,SE,126,0.0,0.0,31,0.00,,,-99.99,,2013-02-03 01:41:00,
2013-02-02 17:52:00,68.0,37.0,30.11,SE,126,0.0,0.0,32,0.00,,,-99.99,,2013-02-03 01:52:00,
2013-02-02 18:01:00,67.0,37.0,30.11,SE,124,0.0,0.0,33,0.00,,,-99.99,,2013-02-03 02:01:00,
2013-02-02 18:21:00,67.0,37.0,30.11,SE,124,0.0,0.0,33,0.00,,,-99.99,,2013-02-03 02:21:00,
2013-02-02 18:31:00,66.0,38.0,30.11,SE,124,0.0,0.0,36,0.00,,,-99.99,,2013-02-03 02:31:00,
2013-02-02 18:41:00,66.0,38.0,30.11,SE,124,0.0,0.0,36,0.00,,,-99.99,,2013-02-03 02:41:00,
2013-02-02 18:52:00,65.0,38.0,30.12,SE,124,0.0,0.0,37,0.00,,,-99.99,,2013-02-03 02:52:00,
2013-02-02 19:01:00,65.0,37.0,30.12,East,82,0.0,0.0,36,0.00,,,-99.99,,2013-02-03 03:01:00,
2013-02-02 19:11:00,65.0,39.0,30.12,East,82,0.0,0.0,38,0.00,,,-99.99,,2013-02-03 03:11:00,
2013-02-02 19:21:00,65.0,39.0,30.12,East,82,0.0,0.0,38,0.00,,,-99.99,,2013-02-03 03:21:00,
2013-02-02 19:31:00,64.0,38.0,30.12,East,82,0.0,0.0,38,0.00,,,-99.99,,2013-02-03 03:31:00,
2013-02-02 19:41:00,64.0,38.0,30.12,East,82,0.0,0.0,38,0.00,,,-99.99,,2013-02-03 03:41:00,
2013-02-02 19:51:00,64.0,39.0,30.13,East,82,0.0,0.0,40,0.00,,,-99.99,,2013-02-03 03:51:00,
2013-02-02 20:01:00,64.0,39.0,30.13,East,82,0.0,0.0,40,0.00,,,-99.99,,2013-02-03 04:01:00,
2013-02-02 20:11:00,63.0,40.0,30.13,East,82,0.0,0.0,42,0.00,,,-99.99,,2013-02-03 04:11:00,
2013-02-02 20:21:00,63.0,40.0,30.13,East,82,0.0,0.0,42,0.00,,,-99.99,,2013-02-03 04:21:00,
2013-02-02 20:31:00,63.0,40.0,30.13,East,82,0.0,0.0,42,0.00,,,-99.99,,2013-02-03 04:31:00,
2013-02-02 20:41:00,63.0,40.0,30.13,East,82,0.0,0.0,42,0.00,,,-99.99,,2013-02-03 04:41:00,
2013-02-02 20:52:00,63.0,40.0,30.13,WNW,291,0.0,0.0,43,0.00,,,-99.99,,2013-02-03 04:52:00,
2013-02-02 21:11:00,63.0,40.0,30.13,WSW,257,0.0,0.0,42,0.00,,,-99.99,,2013-02-03 05:11:00,
2013-02-02 21:22:00,63.0,40.0,30.13,WNW,288,0.0,0.0,42,0.00,,,-99.99,,2013-02-03 05:22:00,
2013-02-02 21:31:00,63.0,40.0,30.13,WNW,302,0.0,0.0,43,0.00,,,-99.99,,2013-02-03 05:31:00,
2013-02-02 21:41:00,63.0,40.0,30.13,WNW,302,0.0,0.0,43,0.00,,,-99.99,,2013-02-03 05:41:00,
2013-02-02 21:52:00,63.0,40.0,30.13,WNW,302,0.0,0.0,43,0.00,,,-99.99,,2013-02-03 05:52:00,
2013-02-02 22:02:00,62.0,39.0,30.13,West,278,0.0,0.0,43,0.00,,,-99.99,,2013-02-03 06:02:00,
2013-02-02 22:11:00,62.0,39.0,30.13,West,278,0.0,0.0,43,0.00,,,-99.99,,2013-02-03 06:11:00,
2013-02-02 22:21:00,62.0,39.0,30.12,West,280,0.0,0.0,43,0.00,,,-99.99,,2013-02-03 06:21:00,
2013-02-02 22:31:00,62.0,41.0,30.12,WNW,285,0.0,0.0,46,0.00,,,-99.99,,2013-02-03 06:31:00,
2013-02-02 22:41:00,62.0,41.0,30.12,WNW,285,0.0,0.0,46,0.00,,,-99.99,,2013-02-03 06:41:00,
2013-02-02 22:52:00,62.0,42.0,30.13,WNW,285,0.0,0.0,47,0.00,,,-99.99,,2013-02-03 06:52:00,
2013-02-02 23:01:00,62.0,42.0,30.13,WNW,286,0.0,0.0,48,0.00,,,-99.99,,2013-02-03 07:01:00,
2013-02-02 23:11:00,62.0,42.0,30.13,WNW,286,0.0,0.0,48,0.00,,,-99.99,,2013-02-03 07:11:00,
2013-02-02 23:21:00,62.0,43.0,30.13,West,274,0.0,0.0,50,0.00,,,-99.99,,2013-02-03 07:21:00,
2013-02-02 23:31:00,61.0,43.0,30.12,West,273,0.0,0.0,51,0.00,,,-99.99,,2013-02-03 07:31:00,
2013-02-02 23:41:00,61.0,43.0,30.12,West,273,0.0,0.0,51,0.00,,,-99.99,,2013-02-03 07:41:00,
2013-02-02 23:52:00,61.0,46.0,30.12,WNW,288,0.0,0.0,57,0.00,,,-99.99,,2013-02-03 07:52:00,